Flag for United Arab Emirates Weather past 2 weeks in Ras al-Khaimah, Ras al-Khaimah, United Arab Emirates

Now
90 °F

Haze.


Feels Like: 105 °F
Forecast: 88 / 101 °F
Wind: 6 mph from South

Location: Ras Al Khaimah International Airport

Current Time: Sep 3, 2015 at 4:38:28 AM

Latest Report: Sep 3, 2015 at 4:00 AM


Visibility: 3 mi

Pressure: 29.56 "Hg

Humidity: 71%

Dew point: 79 °F

Historic Weather in Ras al-Khaimah — Graph

°F

Ras al-Khaimah temperature yesterday

Maximum temperature yesterday: 106 °F (at 12:00 PM)
Minimum temperature yesterday: 84 °F (at 3:00 AM)
Average temperature yesterday: 95 °F

Past Weeks' High & Low Weather Summary

 TemperatureHumidityPressure
High115 °F (Aug 31, 1:00 PM)89% (Sep 1, 5:00 AM)29.68 "Hg (Sep 1, 5:00 AM)
Low81 °F (Aug 27, 5:00 AM)11% (Aug 27, 10:00 AM)29.50 "Hg (Aug 24, 2:00 AM)
Average97 °F40%29.58 "Hg
* Reported Aug 19 3:00 AM — Sep 3 3:00 AM, Ras al-Khaimah, Weather by CustomWeather, © 2015

Note: Actual official high and low records may vary slightly from our data, if they occured in-between our weather recording intervals... More about our weather records

Advertising

Ras al-Khaimah weather history for previous 24 hours

 ConditionsComfort  
Time TempWeatherWind HumidityBarometerVisibility
3:00 AM
Thu, Sep 3
90 °FHaze.5 mph71%29.56 "Hg3 mi
2:00 AM90 °FHaze.5 mph71%29.56 "Hg2 mi
1:00 AM91 °FHaze.5 mph71%29.56 "Hg2 mi
12:00 AM91 °FHaze.5 mph80%29.56 "Hg3 mi
11:00 PM
Wed, Sep 2
91 °FHaze.5 mph84%29.56 "Hg3 mi
10:00 PM93 °FHaze.6 mph80%29.56 "Hg3 mi
9:00 PM93 °FHaze.5 mph80%29.53 "Hg3 mi
8:00 PM93 °FClear.3 mph75%29.53 "Hg4 mi
7:00 PM95 °FClear.3 mph71%29.53 "Hg4 mi
6:00 PM97 °FClear.7 mph67%29.50 "Hg4 mi
5:00 PM99 °FClear.10 mph60%29.50 "Hg4 mi
4:00 PM102 °FClear.10 mph51%29.50 "Hg4 mi
3:00 PM102 °FClear.13 mph51%29.50 "Hg4 mi
2:00 PM104 °FClear.10 mph45%29.53 "Hg5 mi
1:00 PM104 °FClear.9 mph45%29.56 "Hg5 mi
12:00 PM106 °FClear.6 mph28%29.56 "Hg5 mi
11:00 AM104 °FClear.2 mph35%29.59 "Hg5 mi
10:00 AM97 °FClear.2 mph56%29.59 "Hg5 mi
9:00 AM93 °FClear.No wind71%29.59 "Hg4 mi
8:00 AM90 °FClear.3 mph43%29.59 "Hg4 mi
7:00 AM86 °FHaze.No wind79%29.59 "Hg3 mi
6:00 AMN/AHaze.5 mphN/AN/A3 mi
5:00 AM86 °FHaze.5 mph84%29.56 "Hg3 mi
4:00 AM86 °FClear.7 mph79%29.53 "Hg4 mi
Weather by CustomWeather, © 2015

See weather overviewHow to use our weather pages